Location: Peach Mountain Observatory
(42.3967°N, 83.9367°W)
Time: 21:43:20
(UTC-04:00)

deb Explorer IX - Pass Details

Date: 21 January 2020
Orbit: 547 x 1100 km, 38.8° (Epoch: 06 April)

Event Time Altitude Azimuth Distance (km) Brightness Sun altitude
Rises 04:20:51 0° 277° (W) 3,847 - -40.0°
Reaches altitude 10° 04:23:50 10° 271° (W) 2,839 - -39.5°
Maximum altitude 04:30:14 42° 203° (SSW) 1,331 - -38.3°
Exits shadow 04:34:20 18° 142° (SE) 2,014 ? -37.6°
Drops below altitude 10° 04:35:53 10° 134° (SE) 2,499 ? -37.3°
Sets 04:38:22 0° 127° (SE) 3,345 ? -36.8°
